Regional Weather Roundup
Issued by NWS

Home | Current Version | Previous Version | Text Only | Print | Product List | Glossary On
Versions: 1 2 3 4 5 6 7 8 9 10 11 12 13 14 15 16 17 18 19 20 21 22 23 24 25 26 27 28 29 30 31 32 33 34 35 36 37 38 39 40 41 42 43 44 45 46 47 48 49 50
000
ASUS45 KPSR 252310
RWRAZ

ARIZONA HOURLY REGIONAL WEATHER ROUNDUP
NATIONAL WEATHER SERVICE PHOENIX AZ
400 PM MST SAT FEB 25 2017

NOTE: FAIR INDICATES FEW OR NO CLOUDS BELOW 12,000 FEET WITH NO
SIGNIFICANT WEATHER AND/OR OBSTRUCTIONS TO VISIBILITY.

AZZ001>003-036-260000-
NORTHWEST ARIZONA

CITY           SKY/WX    TMP DP  RH WIND       PRES   REMARKS
BULLHEAD CITY  PTSUNNY   64  19  17 S8G14     29.97F
KINGMAN        PTSUNNY   53  -6   8 SW16      29.98S
$$

AZZ004>008-015-016-018-260000-
NORTH CENTRAL ARIZONA

CITY           SKY/WX    TMP DP  RH WIND       PRES   REMARKS
GRAND CANYON   PTSUNNY   39   8  27 W13       29.94F WCI  31
WILLIAMS       MOSUNNY   41   5  22 W15G22    29.96S
PRESCOTT       MOSUNNY   48   7  18 SW14      29.98F
FLAGSTAFF      MOSUNNY   39   8  27 SW18G24   29.95F WCI  30
PAYSON         SUNNY     48  16  27 SW6G15    30.02F
PAGE           SUNNY     47   5  18 NE5       29.92F
$$

AZZ009>014-017-260000-
NORTHEAST ARIZONA

CITY           SKY/WX    TMP DP  RH WIND       PRES   REMARKS
WINSLOW        SUNNY     55   1  11 W25G35    29.91F
SAINT JOHNS    SUNNY     52   0  12 SW23G30   29.90F
WINDOW ROCK    MOSUNNY   44   0  16 W17G23    29.91F
SHOW LOW       SUNNY     45   7  21 SW12G28   29.97S
$$

AZZ023-260000-
GREATER PHOENIX AREA

CITY           SKY/WX    TMP DP  RH WIND       PRES   REMARKS
PHOENIX        PTSUNNY   65  18  16 W8        29.98F
BUCKEYE        MOSUNNY   63  25  23 CALM      30.00F
GLENDALE       MOSUNNY   64  19  17 CALM      30.01F
LUKE AFB       MOSUNNY   65  20  18 SW5       29.98F
DEER VALLEY    SUNNY     62  18  18 SW8       29.98F
SCOTTSDALE     SUNNY     62  14  15 CALM      29.99F
MESA-FALCON    MOSUNNY  N/A N/A N/A S6        29.97F
MESA-GATEWAY   MOSUNNY   63  19  19 CALM      30.00F
CHANDLER       SUNNY     64  19  17 W6        30.00F
$$

AZZ027-028-260000-
SOUTHWEST MARICOPA COUNTY AND PINAL COUNTY

CITY           SKY/WX    TMP DP  RH WIND       PRES   REMARKS
CASA GRANDE    NOT AVBL
$$

AZZ503-504-507>509-260000-
SOUTHEAST ARIZONA

CITY           SKY/WX    TMP DP  RH WIND       PRES   REMARKS
TUCSON         SUNNY     67   5   8 W13G21    30.01S
DAVIS-MONTHAN  SUNNY     66   5   9 NW8       30.00S
RYAN FIELD     SUNNY     66  10  11 NW10G18   30.01F
NOGALES        SUNNY     66   2   8 W14       30.01S
SIERRA VISTA   SUNNY     62  -2   7 NW18G24   30.01S
DOUGLAS        SUNNY     67  -6   5 NW9G23    29.96S
SAFFORD        SUNNY     62  11  13 NW14G21   29.95F
$$

AZZ020-021-025-026-031-260000-
SOUTHWEST ARIZONA

CITY           SKY/WX    TMP DP  RH WIND       PRES   REMARKS
YUMA           SUNNY     68  18  14 VRB3      29.97F
$$

CAZ031-033-041-043-047-048-061-260000-
SOUTHERN CALIFORNIA

CITY           SKY/WX    TMP DP  RH WIND       PRES   REMARKS
DOWNTOWN L.A.  PTSUNNY   59  44  57 VRB3      30.03F
L.A. AIRPORT   PTSUNNY   56  47  71 W10       30.04F
SAN DIEGO      PTSUNNY   61  40  45 NW10      30.06F
BURBANK        PTSUNNY   57  40  52 SW8       30.02F
ONTARIO        PTSUNNY   61  33  35 W10       30.00F
RIVERSIDE      PTSUNNY   61  38  42 W12       30.00F
PALM SPRINGS   MOSUNNY   66  34  30 VRB6      29.98F
EL CENTRO NAS  MOSUNNY   69  25  19 CALM      29.97F
IMPERIAL       SUNNY     70  31  23 SE8       29.95F
BLYTHE         MOSUNNY   65  27  23 SE6       29.97F
NEEDLES        MOSUNNY   67  21  17 S12G21    29.96F
$$

NVZ020-UTZ003-260000-
SOUTHERN NEVADA-UTAH

CITY           SKY/WX    TMP DP  RH WIND       PRES   REMARKS
LAS VEGAS      CLOUDY    52  15  23 N5        29.97F
SALT LAKE CITY PTSUNNY   31  22  69 NE12      30.02S WCI  22
$$

NMZ009-TXZ055-260000-
NEW MEXICO-WEST TEXAS

CITY           SKY/WX    TMP DP  RH WIND       PRES   REMARKS
ALBUQUERQUE    CLOUDY    54  -4   9 W21G28    29.86F
EL PASO        MOSUNNY   65  -1   7 W17G24    29.93F
$$


........................KEY........................
SKY/WX - SKY CONDITION/WEATHER
TMP    - TEMPERATURE IN FAHRENHEIT
DP     - DEW POINT IN FAHRENHEIT
RH     - RELATIVE HUMIDITY IN PERCENT
WIND   - DIRECTION AND SPEED IN MILES PER HOUR (MPH)
VRB    - VARIABLE WIND DIRECTION
PRES   - MEAN SEA LEVEL PRESSURE IN INCHES OF MERCURY
         F - FALLING PRESSURE   R - RISING PRESSURE
         S - STEADY PRESSURE
VSB    - VISIBILITY IN MILES
HX     - HEAT INDEX IN FAHRENHEIT
WCI    - WIND CHILL INDEX IN FAHRENHEIT
TC     - TEMPERATURE IN CELSIUS WHICH IS ALSO KNOWN AS
         TEMPERATURE IN CENTIGRADE
AFB    - AIR FORCE BASE
         LUKE AFB IS LUKE AIR FORCE BASE
         DAVIS-MONTHAN IS DAVIS-MONTHAN AIR FORCE BASE
NAS    - NAVAL AIR STATION
         EL CENTRO NAS IS EL CENTRO NAVAL AIR STATION
N/A    - NOT AVAILABLE




USA.gov is the U.S. government's official web portal to all federal, state and local government web resources and services.